[[{"header":{"parameterUnit":"m.s-1","parameterCategory":1,"la1":30.2991,"la2":30.254,"lo1":-89.0895,"lo2":-89.0444,"dy":0.0017,"dx":0.0017,"nx":28,"ny":28,"refTime":"2023-11-03T09:00:00:Z","depth":0,"parameterNumber":2,"parameterNumberName":"U-component_of_WINDS"},"data":[0,0,0,0,0,0,0,0,0,0,0,0,0,0,0,0,0,0,0,0,0,0,0,0,0,0,0,0,0,0,0,0,0,0,0,0,0,0,0,0,0,0,0,0,0,0,0,0,0,0,0,0,0,0,0,0,0,0,0.7248,0.7248,0,0.7267,0.7267,0.7268,0.7286,0.7286,0.7286,0.7287,0.7306,0.7306,0.7306,0,0,0,0,0,0,0,0,0,0,0,0,0,0.7226,0.7227,0.7248,0.7248,0.7249,0.7267,0.7267,0.7268,0.7286,0.7286,0.7286,0.7287,0.7305,0.7306,0.7306,0,0,0,0,0,0,0,0,0,0,0,0,0,0.724,0.7227,0.7248,0.726,0.7261,0.7267,0.7267,0.7268,0.7286,0.7286,0.7286,0.7287,0.7305,0.7306,0.7306,0.7302,0,0,0.7307,0.7308,0,0,0,0,0,0,0,0,0.7239,0.724,0.7258,0.7259,0.7261,0.7275,0.7267,0.7279,0.7286,0.7276,0.7287,0.7287,0.7295,0.7296,0.7299,0.7303,0.7303,0.7307,0.7308,0.7308,0.7308,0,0,0,0,0,0,0,0.7238,0.724,0.7256,0.7258,0.726,0.7264,0.7266,0.7269,0.7283,0.7277,0.7279,0.7281,0.7296,0.7298,0.73,0.7304,0.7307,0.7308,0.7308,0.7308,0.7303,0.7303,0,0,0,0,0,0,0.7235,0.7239,0.7255,0.7256,0.725,0.7264,0.7267,0.727,0.7283,0.7286,0.728,0.7281,0.7298,0.7299,0.73,0.7295,0.7308,0.7308,0.7309,0.7303,0.7303,0.7302,0,0,0,0,0,0,0.7235,0.7237,0.7254,0.7248,0.725,0.7264,0.7267,0.727,0.7273,0.7286,0.7288,0.7281,0.7298,0.73,0.7301,0.7296,0.7309,0.7309,0.7304,0.7303,0.7303,0.7284,0,0,0,0,0,0,0.7234,0.7236,0.7235,0.7248,0.7251,0.7255,0.7267,0.727,0.7273,0.7275,0.7287,0.7289,0.7298,0.73,0.7301,0.7297,0.7309,0.7304,0.7304,0.7303,0.7285,0.7283,0.7281,0,0,0,0,0,0.7233,0.723,0.7235,0.7237,0.725,0.7255,0.7256,0.7267,0.7273,0.7272,0.728,0.7289,0.7296,0.73,0.7302,0.7297,0.7305,0.7304,0.7303,0.7286,0.7284,0.7281,0,0,0,0,0,0,0.7216,0.7231,0.7238,0.7238,0.7245,0.7258,0.7256,0.7264,0.7269,0.7271,0.7284,0.7286,0.7286,0.7292,0.7296,0.7292,0.7302,0.7301,0.7289,0.7286,0.7284,0.7282,0.731,0,0,0,0,0,0.7212,0.7216,0.7229,0.7228,0.7231,0.7243,0.7245,0.7253,0.7261,0.7264,0.7272,0.7279,0.7283,0.7285,0.7289,0.7287,0.7289,0.7284,0.7282,0.728,0.7279,0.7277,0.7274,0.7299,0.7299,0.7299,0,0,0.7205,0.7213,0.7215,0.7224,0.7231,0.7233,0.7245,0.7247,0.7249,0.7264,0.7265,0.7272,0.728,0.7279,0.7279,0.7284,0.7273,0.7279,0.7277,0.7277,0.7275,0.7273,0.7271,0.7299,0.7299,0.7299,0,0,0.7192,0.7199,0.7198,0.7204,0.7213,0.7221,0.7221,0.7232,0.7237,0.7238,0.7249,0.7251,0.7258,0.7263,0.7266,0.7254,0.7262,0.7255,0.7244,0.7241,0.7239,0.7237,0.7231,0.7229,0.7254,0.7254,0.7254,0,0.7181,0.7185,0.7197,0.7198,0.7201,0.7215,0.7214,0.7219,0.7229,0.723,0.7236,0.7243,0.725,0.725,0.7246,0.7249,0.7248,0.7253,0.7238,0.7237,0.7235,0.723,0.7228,0.7253,0.7253,0.7253,0.7253,0,0.7171,0.7173,0.7171,0.718,0.7184,0.7183,0.7195,0.7196,0.7204,0.7211,0.7211,0.722,0.7225,0.7226,0.7233,0.7226,0.7228,0.7236,0.7245,0.7232,0.7227,0.7225,0.7251,0.7252,0.7252,0.7252,0,0,0.7148,0.7162,0.7161,0.7165,0.7175,0.7177,0.7177,0.7182,0.7183,0.7189,0.7189,0.7194,0.72,0.7204,0.7212,0.721,0.7197,0.7217,0.7218,0.7212,0.7188,0.7182,0.7179,0.7203,0.7203,0.7202,0.7187,0,0.7136,0.7137,0.7147,0.7144,0.7146,0.7158,0.7158,0.7164,0.7171,0.7173,0.718,0.7182,0.7191,0.7194,0.7192,0.7199,0.7193,0.7201,0.7202,0.7202,0.7198,0.7177,0.717,0.7155,0.7185,0.7185,0.7185,0,0.7122,0.7126,0.7124,0.7133,0.7134,0.7134,0.7139,0.7141,0.7147,0.7152,0.7156,0.7164,0.7164,0.7173,0.7173,0.7178,0.7179,0.7182,0.7182,0.7182,0.7192,0.7174,0.7151,0.7148,0.7182,0.7182,0.7183,0,0.7104,0.7109,0.7108,0.7111,0.7122,0.7121,0.7126,0.7133,0.7135,0.7139,0.714,0.7144,0.7146,0.7149,0.7158,0.7164,0.7156,0.7166,0.7159,0.7158,0.7156,0.7155,0.713,0.7158,0.7158,0.7158,0.7158,0,0.7088,0.7086,0.71,0.7099,0.7097,0.7108,0.7105,0.7111,0.7117,0.7117,0.7128,0.7127,0.714,0.7141,0.7148,0.7146,0.7147,0.715,0.7152,0.7148,0.7148,0.7148,0.7149,0.7158,0.7158,0.7158,0.7158,0,0.7068,0.7077,0.7076,0.7086,0.7089,0.7086,0.7095,0.7094,0.7101,0.71,0.7101,0.7111,0.7113,0.7122,0.7126,0.7131,0.7125,0.713,0.7123,0.7124,0.7115,0.7115,0.7088,0.7085,0.7116,0.7116,0.7116,0,0.7057,0.7055,0.7065,0.7065,0.7069,0.707,0.7072,0.7083,0.7084,0.709,0.7089,0.7091,0.7093,0.7095,0.7102,0.7105,0.7109,0.7099,0.7109,0.7105,0.7107,0.7106,0.7105,0.7097,0.7096,0.7096,0.7096,0,0.7036,0.7041,0.7043,0.7046,0.7048,0.7051,0.7055,0.7054,0.7066,0.7067,0.7068,0.707,0.7073,0.7075,0.7078,0.7083,0.709,0.7093,0.7091,0.7087,0.7082,0.7083,0.7115,0.7093,0.7093,0.7093,0.7094,0.7094,0.7019,0.7018,0.7024,0.7025,0.7029,0.7032,0.7031,0.7037,0.7039,0.7042,0.7048,0.7048,0.7053,0.7059,0.7062,0.7062,0.7067,0.7065,0.7064,0.7063,0.706,0.7083,0.7063,0.7063,0.7063,0.7063,0.7063,0,0.6998,0.7002,0.7003,0.7008,0.7009,0.7016,0.702,0.702,0.702,0.7024,0.7026,0.7027,0.7028,0.7035,0.7037,0.7035,0.7039,0.7035,0.7035,0.7035,0.7056,0.7057,0.7032,0.7032,0.7032,0.7032,0.7032,0.7032,0.6987,0.6984,0.6989,0.6988,0.6992,0.6992,0.6993,0.6995,0.6999,0.6999,0.7,0.7004,0.7009,0.7011,0.7012,0.7015,0.7014,0.7009,0.7012,0.7031,0.7034,0.7037,0.7038,0.7009,0.7009,0.6991,0.699,0.699]},{"header":{"parameterUnit":"m.s-1","parameterCategory":1,"la1":30.2991,"la2":30.254,"lo1":-89.0895,"lo2":-89.0444,"dy":0.0017,"dx":0.0017,"nx":28,"ny":28,"refTime":"2023-11-03T09:00:00:Z","depth":0,"parameterNumber":3,"parameterNumberName":"V-component_of_WINDS"},"data":[0,0,0,0,0,0,0,0,0,0,0,0,0,0,0,0,0,0,0,0,0,0,0,0,0,0,0,0,0,0,0,0,0,0,0,0,0,0,0,0,0,0,0,0,0,0,0,0,0,0,0,0,0,0,0,0,0,0,-0.4054,-0.4055,0,-0.4141,-0.4142,-0.4143,-0.4188,-0.4188,-0.4188,-0.4188,-0.428,-0.4282,-0.4284,0,0,0,0,0,0,0,0,0,0,0,0,0,-0.3926,-0.3928,-0.4054,-0.4055,-0.4056,-0.4141,-0.4142,-0.4144,-0.4188,-0.4188,-0.4188,-0.4188,-0.4279,-0.4282,-0.4285,0,0,0,0,0,0,0,0,0,0,0,0,0,-0.3994,-0.3929,-0.4053,-0.4088,-0.4092,-0.4141,-0.4143,-0.4144,-0.4188,-0.4188,-0.4188,-0.4188,-0.4278,-0.4281,-0.4285,-0.4307,0,0,-0.4296,-0.4298,0,0,0,0,0,0,0,0,-0.3991,-0.3999,-0.4082,-0.4086,-0.409,-0.4154,-0.4131,-0.4199,-0.4188,-0.4152,-0.4188,-0.4188,-0.4238,-0.4245,-0.4261,-0.4311,-0.4315,-0.4296,-0.4298,-0.43,-0.4301,0,0,0,0,0,0,0,-0.3986,-0.3996,-0.4088,-0.4083,-0.4088,-0.41,-0.411,-0.4144,-0.4193,-0.4155,-0.4158,-0.4168,-0.424,-0.4258,-0.4264,-0.4316,-0.4296,-0.4299,-0.4302,-0.4303,-0.4389,-0.4389,0,0,0,0,0,0,-0.3975,-0.3991,-0.4086,-0.4091,-0.4039,-0.4102,-0.4113,-0.4133,-0.4193,-0.4202,-0.4168,-0.417,-0.4251,-0.4259,-0.4267,-0.4297,-0.43,-0.4303,-0.4306,-0.4389,-0.4389,-0.4389,0,0,0,0,0,0,-0.3972,-0.3983,-0.4082,-0.4042,-0.4056,-0.4104,-0.4127,-0.4135,-0.4153,-0.4203,-0.4212,-0.4176,-0.4252,-0.4262,-0.4296,-0.4301,-0.4305,-0.4308,-0.4389,-0.4389,-0.4389,-0.4356,0,0,0,0,0,0,-0.3968,-0.3982,-0.399,-0.4042,-0.4058,-0.4109,-0.4127,-0.4137,-0.4158,-0.4162,-0.4214,-0.4222,-0.4252,-0.4291,-0.43,-0.4306,-0.4311,-0.4388,-0.4389,-0.4389,-0.4357,-0.4355,-0.4354,0,0,0,0,0,-0.3964,-0.3978,-0.399,-0.4001,-0.4069,-0.411,-0.4119,-0.4153,-0.4159,-0.4168,-0.42,-0.4221,-0.4298,-0.4294,-0.4305,-0.4312,-0.4388,-0.4389,-0.4389,-0.4358,-0.4356,-0.4354,0,0,0,0,0,0,-0.3926,-0.3985,-0.4,-0.4031,-0.4065,-0.4117,-0.413,-0.4149,-0.4182,-0.4184,-0.4226,-0.4237,-0.4268,-0.4293,-0.4287,-0.4336,-0.4345,-0.4348,-0.4318,-0.4317,-0.4315,-0.4308,-0.4314,0,0,0,0,0,-0.3921,-0.3948,-0.3999,-0.4022,-0.4038,-0.408,-0.4099,-0.4123,-0.416,-0.4175,-0.421,-0.4245,-0.4278,-0.4299,-0.4331,-0.4361,-0.4373,-0.4371,-0.4369,-0.4367,-0.4369,-0.4387,-0.4387,-0.439,-0.439,-0.439,0,0,-0.3911,-0.3947,-0.3962,-0.4015,-0.4044,-0.4072,-0.4092,-0.4121,-0.4143,-0.4179,-0.4214,-0.4241,-0.4283,-0.4315,-0.4331,-0.4338,-0.4371,-0.4368,-0.4366,-0.4369,-0.4388,-0.4387,-0.4387,-0.439,-0.439,-0.439,0,0,-0.3908,-0.3938,-0.396,-0.3989,-0.4032,-0.4061,-0.4066,-0.4115,-0.4134,-0.4169,-0.4197,-0.4224,-0.4279,-0.4308,-0.4331,-0.4338,-0.4359,-0.4348,-0.4339,-0.4356,-0.4356,-0.4356,-0.436,-0.436,-0.435,-0.4349,-0.4349,0,-0.3891,-0.3934,-0.3969,-0.3997,-0.4019,-0.4053,-0.4076,-0.4102,-0.4154,-0.417,-0.4175,-0.4246,-0.4277,-0.4316,-0.4318,-0.4335,-0.4343,-0.4343,-0.4353,-0.4354,-0.4354,-0.4358,-0.4359,-0.4348,-0.4348,-0.4348,-0.4348,0,-0.3911,-0.3941,-0.3954,-0.4003,-0.4027,-0.4052,-0.4091,-0.4112,-0.4133,-0.416,-0.4196,-0.4235,-0.4276,-0.4287,-0.4308,-0.433,-0.4332,-0.4345,-0.4356,-0.4352,-0.4356,-0.4358,-0.4346,-0.4346,-0.4347,-0.4347,0,0,-0.3888,-0.3955,-0.396,-0.3982,-0.4033,-0.4056,-0.4083,-0.4123,-0.414,-0.4175,-0.4199,-0.4244,-0.4257,-0.4282,-0.4306,-0.4321,-0.4326,-0.4332,-0.4334,-0.433,-0.4353,-0.4344,-0.4345,-0.4339,-0.434,-0.434,-0.435,0,-0.3892,-0.3942,-0.3974,-0.4011,-0.4039,-0.4071,-0.4094,-0.4128,-0.4155,-0.4183,-0.4213,-0.4245,-0.4258,-0.4273,-0.4289,-0.4322,-0.4331,-0.4321,-0.4363,-0.4364,-0.4352,-0.4347,-0.4337,-0.4345,-0.4352,-0.4352,-0.4352,0,-0.3905,-0.3938,-0.3977,-0.4025,-0.4038,-0.4058,-0.4098,-0.4124,-0.4163,-0.4181,-0.4209,-0.4234,-0.4264,-0.4271,-0.4314,-0.4307,-0.4326,-0.4344,-0.4345,-0.4351,-0.4358,-0.4354,-0.4348,-0.4349,-0.4355,-0.4355,-0.4355,0,-0.3884,-0.3939,-0.397,-0.3988,-0.4044,-0.4058,-0.4082,-0.4121,-0.4143,-0.4177,-0.4192,-0.423,-0.425,-0.4279,-0.4314,-0.4316,-0.4353,-0.4363,-0.437,-0.4369,-0.4378,-0.4377,-0.4376,-0.4388,-0.4388,-0.4388,-0.4388,0,-0.3887,-0.391,-0.3961,-0.398,-0.4007,-0.4044,-0.407,-0.4097,-0.4131,-0.4156,-0.4186,-0.421,-0.4254,-0.4282,-0.431,-0.4341,-0.435,-0.4367,-0.4374,-0.4364,-0.4362,-0.4378,-0.4379,-0.4388,-0.4388,-0.4388,-0.4388,0,-0.3869,-0.3904,-0.394,-0.399,-0.4003,-0.402,-0.4064,-0.4083,-0.4111,-0.4143,-0.4153,-0.4197,-0.4232,-0.4269,-0.4318,-0.4336,-0.4367,-0.4376,-0.4353,-0.4358,-0.4363,-0.4362,-0.4372,-0.4376,-0.4385,-0.4385,-0.4384,0,-0.3868,-0.3887,-0.3938,-0.3957,-0.398,-0.401,-0.4033,-0.407,-0.4092,-0.4138,-0.4152,-0.419,-0.4222,-0.4277,-0.4314,-0.4351,-0.4362,-0.4363,-0.4368,-0.4358,-0.4363,-0.4362,-0.4364,-0.4362,-0.4361,-0.4361,-0.4361,0,-0.3864,-0.3881,-0.3912,-0.3949,-0.3974,-0.4006,-0.4038,-0.4052,-0.4095,-0.4119,-0.4155,-0.418,-0.4229,-0.4266,-0.4307,-0.4333,-0.4354,-0.4359,-0.4363,-0.4354,-0.434,-0.4348,-0.435,-0.4359,-0.4359,-0.4359,-0.4359,-0.4359,-0.3856,-0.3874,-0.3913,-0.3947,-0.3975,-0.4004,-0.4025,-0.4056,-0.4086,-0.4129,-0.4149,-0.4185,-0.4224,-0.4282,-0.4307,-0.4336,-0.4343,-0.4348,-0.4349,-0.435,-0.4348,-0.4334,-0.4344,-0.4344,-0.4344,-0.4344,-0.4344,0,-0.3854,-0.3881,-0.3911,-0.3955,-0.3981,-0.3998,-0.4035,-0.4056,-0.4088,-0.4122,-0.4152,-0.4194,-0.423,-0.427,-0.4308,-0.4324,-0.4335,-0.4333,-0.4333,-0.4339,-0.434,-0.4333,-0.4324,-0.4324,-0.4324,-0.4324,-0.4324,-0.4324,-0.3856,-0.3888,-0.3909,-0.3954,-0.3981,-0.4017,-0.4036,-0.4064,-0.4091,-0.4136,-0.4166,-0.4191,-0.4228,-0.4269,-0.4303,-0.4314,-0.4327,-0.4323,-0.4336,-0.4337,-0.4338,-0.434,-0.4334,-0.4325,-0.4325,-0.4333,-0.4333,-0.4333]}]]